Time,TemperatureF,DewpointF,PressureIn,WindDirection,WindDirectionDegrees,WindSpeedMPH,WindSpeedGustMPH,Humidity,HourlyPrecipIn,Conditions,Clouds,dailyrainin,SoftwareType,DateUTC
2013-06-29 00:01:00,80.2,61.6,30.00,North,0,0.0,0.0,53,0.00,,SCT120,0.00,VWS V14.01,2013-06-29 04:01:00,
2013-06-29 00:02:00,80.2,61.6,30.00,North,0,0.0,0.0,53,0.00,,SCT120,0.00,VWS V14.01,2013-06-29 04:02:00,
2013-06-29 00:07:00,80.2,62.1,30.00,North,0,0.0,0.0,54,0.00,,SCT120,0.00,VWS V14.01,2013-06-29 04:07:00,
2013-06-29 00:12:00,79.9,61.2,30.00,North,0,0.0,0.0,53,0.00,,SCT120,0.00,VWS V14.01,2013-06-29 04:12:00,
2013-06-29 00:17:00,79.5,62.0,30.00,North,0,0.0,0.0,55,0.00,,SCT120,0.00,VWS V14.01,2013-06-29 04:17:00,
2013-06-29 00:22:00,79.3,62.8,30.00,North,0,0.0,0.0,57,0.00,,SCT120,0.00,VWS V14.01,2013-06-29 04:22:00,
2013-06-29 00:27:00,79.5,64.0,30.00,North,0,0.0,0.0,59,0.00,,SCT120,0.00,VWS V14.01,2013-06-29 04:27:00,
2013-06-29 00:32:00,79.3,63.8,30.00,North,0,0.0,0.0,59,0.00,,SCT120,0.00,VWS V14.01,2013-06-29 04:32:00,
2013-06-29 00:37:00,79.2,64.1,30.00,North,0,0.0,0.0,60,0.00,,SCT120,0.00,VWS V14.01,2013-06-29 04:37:00,
2013-06-29 00:42:00,79.2,64.1,29.97,North,0,0.0,0.0,60,0.00,,SCT120,0.00,VWS V14.01,2013-06-29 04:42:00,
2013-06-29 00:47:00,79.2,64.6,29.97,North,0,0.0,0.0,61,0.00,,SCT120,0.00,VWS V14.01,2013-06-29 04:47:00,
2013-06-29 00:52:00,79.2,65.0,29.97,North,0,0.0,0.0,62,0.00,,SCT120,0.00,VWS V14.01,2013-06-29 04:52:00,
2013-06-29 00:57:00,79.0,64.9,29.97,North,0,0.0,0.0,62,0.00,,SCT120,0.00,VWS V14.01,2013-06-29 04:57:00,
2013-06-29 01:02:00,79.0,64.9,29.97,North,0,0.0,0.0,62,0.00,,SCT120,0.00,VWS V14.01,2013-06-29 05:02:00,
2013-06-29 01:07:00,78.8,64.7,29.97,North,0,0.0,0.0,62,0.00,,SCT120,0.00,VWS V14.01,2013-06-29 05:07:00,
2013-06-29 01:12:00,78.8,65.2,29.97,North,0,0.0,0.0,63,0.00,,SCT120,0.00,VWS V14.01,2013-06-29 05:12:00,
2013-06-29 01:17:00,78.4,64.8,29.97,North,0,0.0,0.0,63,0.00,,SCT120,0.00,VWS V14.01,2013-06-29 05:17:00,
2013-06-29 01:22:00,78.4,65.3,29.97,North,0,0.0,0.0,64,0.00,,SCT120,0.00,VWS V14.01,2013-06-29 05:22:00,
2013-06-29 01:27:00,78.3,65.1,29.97,North,0,0.0,0.0,64,0.00,,SCT120,0.00,VWS V14.01,2013-06-29 05:27:00,
2013-06-29 01:32:00,78.3,65.5,29.97,North,0,0.0,0.0,65,0.00,,SCT120,0.00,VWS V14.01,2013-06-29 05:32:00,
2013-06-29 01:37:00,77.9,64.8,29.97,North,0,0.0,0.0,64,0.00,,SCT120,0.00,VWS V14.01,2013-06-29 05:37:00,
2013-06-29 01:42:00,77.7,65.0,29.97,North,0,0.0,0.0,65,0.00,,SCT120,0.00,VWS V14.01,2013-06-29 05:42:00,
2013-06-29 01:47:00,77.7,65.0,29.97,North,0,0.0,0.0,65,0.00,,SCT120,0.00,VWS V14.01,2013-06-29 05:47:00,
2013-06-29 01:52:00,77.7,65.5,29.97,North,0,0.0,0.0,66,0.00,,SCT120,0.00,VWS V14.01,2013-06-29 05:52:00,
2013-06-29 01:57:00,77.5,65.3,29.97,North,0,0.0,0.0,66,0.00,,SCT120,0.00,VWS V14.01,2013-06-29 05:57:00,
2013-06-29 02:02:00,77.5,65.3,29.97,North,0,0.0,0.0,66,0.00,,SCT120,0.00,VWS V14.01,2013-06-29 06:02:00,
2013-06-29 02:07:00,77.5,65.7,29.97,North,0,0.0,0.0,67,0.00,,SCT120,0.00,VWS V14.01,2013-06-29 06:07:00,
2013-06-29 02:12:00,77.7,65.9,29.97,North,0,0.0,0.0,67,0.00,,SCT120,0.00,VWS V14.01,2013-06-29 06:12:00,
2013-06-29 02:17:00,77.7,65.9,29.97,North,0,0.0,0.0,67,0.00,,SCT120,0.00,VWS V14.01,2013-06-29 06:17:00,
2013-06-29 02:22:00,77.5,65.7,29.97,North,0,0.0,0.0,67,0.00,,SCT120,0.00,VWS V14.01,2013-06-29 06:22:00,
2013-06-29 02:27:00,77.4,65.6,29.97,North,0,0.0,0.0,67,0.00,,SCT120,0.00,VWS V14.01,2013-06-29 06:27:00,
2013-06-29 02:32:00,77.5,65.7,29.97,North,0,0.0,0.0,67,0.00,,SCT120,0.00,VWS V14.01,2013-06-29 06:32:00,
2013-06-29 02:37:00,77.4,65.6,29.97,North,0,0.0,0.0,67,0.00,,SCT120,0.00,VWS V14.01,2013-06-29 06:37:00,
2013-06-29 02:42:00,77.0,65.2,29.97,North,0,0.0,0.0,67,0.00,,SCT120,0.00,VWS V14.01,2013-06-29 06:42:00,
2013-06-29 02:47:00,77.0,65.6,29.97,North,0,0.0,0.0,68,0.00,,SCT120,0.00,VWS V14.01,2013-06-29 06:47:00,
2013-06-29 02:52:00,77.0,65.6,29.97,North,0,0.0,0.0,68,0.00,,SCT120,0.00,VWS V14.01,2013-06-29 06:52:00,
2013-06-29 02:57:00,76.8,65.5,29.97,North,0,0.0,0.0,68,0.00,,SCT120,0.00,VWS V14.01,2013-06-29 06:57:00,
2013-06-29 03:02:00,76.8,65.5,29.97,North,0,0.0,0.0,68,0.00,,SCT120,0.00,VWS V14.01,2013-06-29 07:02:00,
2013-06-29 03:07:00,77.0,65.6,29.97,North,0,0.0,0.0,68,0.00,,SCT120,0.00,VWS V14.01,2013-06-29 07:07:00,
2013-06-29 03:12:00,76.6,65.7,29.97,North,0,0.0,0.0,69,0.00,,SCT120,0.00,VWS V14.01,2013-06-29 07:12:00,
2013-06-29 03:17:00,76.8,65.9,29.97,North,0,0.0,0.0,69,0.00,,SCT120,0.00,VWS V14.01,2013-06-29 07:17:00,
2013-06-29 03:22:00,76.6,65.7,29.97,North,0,0.0,0.0,69,0.00,,SCT120,0.00,VWS V14.01,2013-06-29 07:22:00,
2013-06-29 03:27:00,76.5,65.5,29.97,North,0,0.0,0.0,69,0.00,,SCT120,0.00,VWS V14.01,2013-06-29 07:27:00,
2013-06-29 03:32:00,76.5,65.5,29.97,North,0,0.0,0.0,69,0.00,,SCT120,0.00,VWS V14.01,2013-06-29 07:32:00,
2013-06-29 03:37:00,76.5,66.0,29.97,North,0,0.0,0.0,70,0.00,,SCT120,0.00,VWS V14.01,2013-06-29 07:37:00,
2013-06-29 03:42:00,76.5,66.0,29.97,North,0,0.0,0.0,70,0.00,,SCT120,0.00,VWS V14.01,2013-06-29 07:42:00,
2013-06-29 03:47:00,76.1,65.6,29.97,North,0,0.0,0.0,70,0.00,,SCT120,0.00,VWS V14.01,2013-06-29 07:47:00,
2013-06-29 03:52:00,76.1,65.6,29.97,North,0,0.0,0.0,70,0.00,,SCT120,0.00,VWS V14.01,2013-06-29 07:52:00,
2013-06-29 03:57:00,76.1,65.6,29.94,North,0,0.0,0.0,70,0.00,,SCT120,0.00,VWS V14.01,2013-06-29 07:57:00,
2013-06-29 04:02:00,76.1,66.0,29.94,North,0,0.0,0.0,71,0.00,,SCT120,0.00,VWS V14.01,2013-06-29 08:02:00,
2013-06-29 04:07:00,76.1,65.6,29.94,North,0,0.0,0.0,70,0.00,,SCT120,0.00,VWS V14.01,2013-06-29 08:07:00,
2013-06-29 04:12:00,76.1,66.0,29.94,North,0,0.0,0.0,71,0.00,,SCT120,0.00,VWS V14.01,2013-06-29 08:12:00,
2013-06-29 04:17:00,75.7,65.3,29.94,North,0,0.0,0.0,70,0.00,,SCT120,0.00,VWS V14.01,2013-06-29 08:17:00,
2013-06-29 04:22:00,75.6,65.1,29.94,North,0,0.0,0.0,70,0.00,,SCT120,0.00,VWS V14.01,2013-06-29 08:22:00,
2013-06-29 04:27:00,75.6,65.5,29.97,North,0,0.0,0.0,71,0.00,,SCT120,0.00,VWS V14.01,2013-06-29 08:27:00,
2013-06-29 04:32:00,75.6,65.5,29.97,North,0,0.0,0.0,71,0.00,,SCT120,0.00,VWS V14.01,2013-06-29 08:32:00,
2013-06-29 04:37:00,75.7,66.1,29.97,North,0,0.0,0.0,72,0.00,,SCT120,0.00,VWS V14.01,2013-06-29 08:37:00,
2013-06-29 04:42:00,75.7,66.1,29.97,North,0,0.0,0.0,72,0.00,,SCT120,0.00,VWS V14.01,2013-06-29 08:42:00,
2013-06-29 04:47:00,75.6,65.5,29.97,North,0,0.0,0.0,71,0.00,,SCT120,0.00,VWS V14.01,2013-06-29 08:47:00,
2013-06-29 04:52:00,75.6,65.5,29.97,North,0,0.0,0.0,71,0.00,,SCT120,0.00,VWS V14.01,2013-06-29 08:52:00,
2013-06-29 04:57:00,75.6,65.5,29.97,North,0,0.0,0.0,71,0.00,,SCT120,0.00,VWS V14.01,2013-06-29 08:57:00,
2013-06-29 05:02:00,75.7,66.1,29.97,North,0,0.0,0.0,72,0.00,,SCT120,0.00,VWS V14.01,2013-06-29 09:02:00,
2013-06-29 05:07:00,75.6,65.9,29.97,North,0,0.0,0.0,72,0.00,,SCT120,0.00,VWS V14.01,2013-06-29 09:07:00,
2013-06-29 05:12:00,75.4,65.3,29.97,North,0,0.0,0.0,71,0.00,,SCT120,0.00,VWS V14.01,2013-06-29 09:12:00,
2013-06-29 05:17:00,75.2,65.6,29.97,North,0,0.0,0.0,72,0.00,,SCT120,0.00,VWS V14.01,2013-06-29 09:17:00,
2013-06-29 05:22:00,75.2,65.6,29.97,North,0,0.0,0.0,72,0.00,,SCT120,0.00,VWS V14.01,2013-06-29 09:22:00,
2013-06-29 05:27:00,75.0,65.8,29.97,North,0,0.0,0.0,73,0.00,,SCT120,0.00,VWS V14.01,2013-06-29 09:27:00,
2013-06-29 05:32:00,75.0,65.8,29.97,North,0,0.0,0.0,73,0.00,,SCT120,0.00,VWS V14.01,2013-06-29 09:32:00,
2013-06-29 05:37:00,75.2,66.3,29.97,North,0,0.0,0.0,74,0.00,,SCT120,0.00,VWS V14.01,2013-06-29 09:37:00,
2013-06-29 05:42:00,75.2,66.3,29.97,North,0,0.0,0.0,74,0.00,,SCT120,0.00,VWS V14.01,2013-06-29 09:42:00,
2013-06-29 05:47:00,75.0,66.2,29.97,North,0,0.0,0.0,74,0.00,,SCT120,0.00,VWS V14.01,2013-06-29 09:47:00,
2013-06-29 05:52:00,75.0,66.2,29.97,North,0,0.0,0.0,74,0.00,,SCT120,0.00,VWS V14.01,2013-06-29 09:52:00,
2013-06-29 05:57:00,75.0,66.2,29.97,North,0,0.0,0.0,74,0.00,,SCT120,0.00,VWS V14.01,2013-06-29 09:57:00,
2013-06-29 06:02:00,75.0,66.6,29.97,North,0,0.0,0.0,75,0.00,,SCT120,0.00,VWS V14.01,2013-06-29 10:02:00,
2013-06-29 06:07:00,75.4,66.9,29.97,North,0,0.0,0.0,75,0.00,,SCT120,0.00,VWS V14.01,2013-06-29 10:07:00,
2013-06-29 06:12:00,75.6,67.1,29.97,North,0,0.0,0.0,75,0.00,,SCT120,0.00,VWS V14.01,2013-06-29 10:12:00,
2013-06-29 06:17:00,75.6,67.1,29.97,North,0,0.0,0.0,75,0.00,,SCT120,0.00,VWS V14.01,2013-06-29 10:17:00,
2013-06-29 06:22:00,75.4,66.5,29.97,North,0,0.0,0.0,74,0.00,,SCT120,0.00,VWS V14.01,2013-06-29 10:22:00,
2013-06-29 06:27:00,75.4,66.5,29.97,North,0,0.0,0.0,74,0.00,,SCT120,0.00,VWS V14.01,2013-06-29 10:27:00,
2013-06-29 06:32:00,75.4,66.5,29.97,North,0,0.0,0.0,74,0.00,,SCT120,0.00,VWS V14.01,2013-06-29 10:32:00,
2013-06-29 06:37:00,75.6,67.1,29.97,North,0,0.0,0.0,75,0.00,,SCT120,0.00,VWS V14.01,2013-06-29 10:37:00,
2013-06-29 06:42:00,75.7,67.3,29.97,North,0,0.0,0.0,75,0.00,,SCT120,0.00,VWS V14.01,2013-06-29 10:42:00,
2013-06-29 06:47:00,76.3,68.2,29.97,North,0,0.0,0.0,76,0.00,,SCT120,0.00,VWS V14.01,2013-06-29 10:47:00,
2013-06-29 06:52:00,76.8,68.7,29.97,North,0,0.0,0.0,76,0.00,,SCT120,0.00,VWS V14.01,2013-06-29 10:52:00,
2013-06-29 06:57:00,77.2,68.7,30.00,North,0,0.0,0.0,75,0.00,,SCT120,0.00,VWS V14.01,2013-06-29 10:57:00,
2013-06-29 07:02:00,77.5,69.0,30.00,North,0,0.0,0.0,75,0.00,,SCT120,0.00,VWS V14.01,2013-06-29 11:02:00,
2013-06-29 07:07:00,77.7,68.8,30.00,North,0,0.0,0.0,74,0.00,,SCT120,0.00,VWS V14.01,2013-06-29 11:07:00,
2013-06-29 07:12:00,78.1,68.7,30.00,North,0,0.0,0.0,73,0.00,,SCT120,0.00,VWS V14.01,2013-06-29 11:12:00,
2013-06-29 07:17:00,78.3,68.1,30.00,North,0,0.0,0.0,71,0.00,,SCT120,0.00,VWS V14.01,2013-06-29 11:17:00,
2013-06-29 07:22:00,79.0,68.8,30.00,North,0,0.0,0.0,71,0.00,,SCT120,0.00,VWS V14.01,2013-06-29 11:22:00,
2013-06-29 07:27:00,79.7,69.1,30.00,North,0,0.0,0.0,70,0.00,,SCT120,0.00,VWS V14.01,2013-06-29 11:27:00,
2013-06-29 07:32:00,80.2,69.2,30.00,North,0,0.0,0.0,69,0.00,,SCT120,0.00,VWS V14.01,2013-06-29 11:32:00,
2013-06-29 07:37:00,80.6,68.6,30.00,North,0,0.0,0.0,67,0.00,,SCT120,0.00,VWS V14.01,2013-06-29 11:37:00,
2013-06-29 07:42:00,81.3,68.9,30.00,North,0,0.0,0.0,66,0.00,,SCT120,0.00,VWS V14.01,2013-06-29 11:42:00,
2013-06-29 07:47:00,81.7,68.8,30.00,North,0,0.0,0.0,65,0.00,,SCT120,0.00,VWS V14.01,2013-06-29 11:47:00,
2013-06-29 07:52:00,82.0,67.8,30.00,North,0,0.0,0.0,62,0.00,,SCT120,0.00,VWS V14.01,2013-06-29 11:52:00,
2013-06-29 07:57:00,82.4,67.1,30.00,North,0,0.0,0.0,60,0.00,,SCT120,0.00,VWS V14.01,2013-06-29 11:57:00,
2013-06-29 08:02:00,82.6,66.3,30.00,North,0,0.0,0.0,58,0.00,,SCT120,0.00,VWS V14.01,2013-06-29 12:02:00,
2013-06-29 08:07:00,82.8,65.0,30.00,North,0,0.0,0.0,55,0.00,,SCT120,0.00,VWS V14.01,2013-06-29 12:07:00,
2013-06-29 08:12:00,83.1,64.2,29.97,North,0,0.0,0.0,53,0.00,,SCT120,0.00,VWS V14.01,2013-06-29 12:12:00,
2013-06-29 08:17:00,83.5,64.6,29.97,North,0,0.0,0.0,53,0.00,,SCT120,0.00,VWS V14.01,2013-06-29 12:17:00,
2013-06-29 08:22:00,84.0,64.0,29.97,North,0,0.0,0.0,51,0.00,,SCT120,0.00,VWS V14.01,2013-06-29 12:22:00,
2013-06-29 08:27:00,84.2,61.8,29.97,North,0,0.0,0.0,47,0.00,,SCT120,0.00,VWS V14.01,2013-06-29 12:27:00,
2013-06-29 08:32:00,84.0,61.0,29.97,North,0,0.0,0.0,46,0.00,,SCT120,0.00,VWS V14.01,2013-06-29 12:32:00,
2013-06-29 08:37:00,84.0,61.0,29.97,North,0,0.0,0.0,46,0.00,,SCT120,0.00,VWS V14.01,2013-06-29 12:37:00,
2013-06-29 08:42:00,84.2,60.6,29.97,North,0,0.0,0.0,45,0.00,,SCT120,0.00,VWS V14.01,2013-06-29 12:42:00,
2013-06-29 08:47:00,84.9,60.0,29.97,North,0,0.0,0.0,43,0.00,,SCT120,0.00,VWS V14.01,2013-06-29 12:47:00,
2013-06-29 08:52:00,85.3,58.9,29.97,North,0,0.0,0.0,41,0.00,,SCT120,0.00,VWS V14.01,2013-06-29 12:52:00,
2013-06-29 08:57:00,85.3,58.2,29.97,North,0,0.0,0.0,40,0.00,,SCT120,0.00,VWS V14.01,2013-06-29 12:57:00,
2013-06-29 09:02:00,85.5,58.4,29.97,North,0,0.0,0.0,40,0.00,,SCT120,0.00,VWS V14.01,2013-06-29 13:02:00,
2013-06-29 09:07:00,85.6,57.9,29.97,North,0,0.0,0.0,39,0.00,,SCT120,0.00,VWS V14.01,2013-06-29 13:07:00,
2013-06-29 09:12:00,86.4,58.5,29.97,North,0,0.0,0.0,39,0.00,,SCT120,0.00,VWS V14.01,2013-06-29 13:12:00,
2013-06-29 09:17:00,86.4,55.5,29.97,North,0,0.0,0.0,35,0.00,,SCT120,0.00,VWS V14.01,2013-06-29 13:17:00,
2013-06-29 09:22:00,86.7,54.2,29.97,North,0,0.0,0.0,33,0.00,,SCT120,0.00,VWS V14.01,2013-06-29 13:22:00,
2013-06-29 09:27:00,86.9,53.5,29.97,North,0,0.0,0.0,32,0.00,,SCT120,0.00,VWS V14.01,2013-06-29 13:27:00,
2013-06-29 09:32:00,87.1,52.8,29.97,North,0,0.0,0.0,31,0.00,,SCT120,0.00,VWS V14.01,2013-06-29 13:32:00,
2013-06-29 09:37:00,86.7,53.4,29.97,North,0,0.0,0.0,32,0.00,,SCT120,0.00,VWS V14.01,2013-06-29 13:37:00,
2013-06-29 09:42:00,86.9,52.7,29.97,North,0,0.0,0.0,31,0.00,,SCT120,0.00,VWS V14.01,2013-06-29 13:42:00,
2013-06-29 09:47:00,87.3,52.1,29.97,North,0,0.0,0.0,30,0.00,,SCT120,0.00,VWS V14.01,2013-06-29 13:47:00,
2013-06-29 09:52:00,88.0,51.8,29.97,North,0,0.0,0.0,29,0.00,,SCT120,0.00,VWS V14.01,2013-06-29 13:52:00,
2013-06-29 09:57:00,88.2,51.9,29.97,North,0,0.0,0.0,29,0.00,,SCT120,0.00,VWS V14.01,2013-06-29 13:57:00,
2013-06-29 10:02:00,88.0,50.8,29.97,North,0,0.0,0.0,28,0.00,,SCT120,0.00,VWS V14.01,2013-06-29 14:02:00,
2013-06-29 10:07:00,88.2,51.0,29.97,North,0,0.0,0.0,28,0.00,,SCT120,0.00,VWS V14.01,2013-06-29 14:07:00,
2013-06-29 10:12:00,88.5,51.3,29.97,North,0,0.0,0.0,28,0.00,,SCT120,0.00,VWS V14.01,2013-06-29 14:12:00,
2013-06-29 10:17:00,88.9,51.6,29.97,North,0,0.0,0.0,28,0.00,,SCT120,0.00,VWS V14.01,2013-06-29 14:17:00,
2013-06-29 10:22:00,89.1,51.8,29.97,North,0,0.0,0.0,28,0.00,,SCT120,0.00,VWS V14.01,2013-06-29 14:22:00,
2013-06-29 10:27:00,89.8,51.4,29.97,North,0,0.0,0.0,27,0.00,,SCT120,0.00,VWS V14.01,2013-06-29 14:27:00,
2013-06-29 10:32:00,90.0,49.5,29.97,North,0,0.0,0.0,25,0.00,,SCT120,0.00,VWS V14.01,2013-06-29 14:32:00,
2013-06-29 10:37:00,89.6,51.2,29.97,North,0,0.0,0.0,27,0.00,,SCT120,0.00,VWS V14.01,2013-06-29 14:37:00,
2013-06-29 10:42:00,88.7,51.4,30.00,North,0,0.0,0.0,28,0.00,,SCT120,0.00,VWS V14.01,2013-06-29 14:42:00,
2013-06-29 10:47:00,88.9,51.6,30.00,North,0,0.0,0.0,28,0.00,,SCT120,0.00,VWS V14.01,2013-06-29 14:47:00,
2013-06-29 10:52:00,89.6,52.2,30.00,North,0,0.0,0.0,28,0.00,,SCT120,0.00,VWS V14.01,2013-06-29 14:52:00,
2013-06-29 10:57:00,89.2,51.9,30.00,North,0,0.0,0.0,28,0.00,,SCT120,0.00,VWS V14.01,2013-06-29 14:57:00,
2013-06-29 11:02:00,88.9,51.6,30.00,North,0,0.0,0.0,28,0.00,,SCT120,0.00,VWS V14.01,2013-06-29 15:02:00,
2013-06-29 11:07:00,89.1,50.8,30.00,North,0,0.0,0.0,27,0.00,,SCT120,0.00,VWS V14.01,2013-06-29 15:07:00,
2013-06-29 11:12:00,89.6,48.1,30.00,North,0,0.0,0.0,24,0.00,,SCT120,0.00,VWS V14.01,2013-06-29 15:12:00,
2013-06-29 11:17:00,89.6,51.2,30.00,North,0,0.0,0.0,27,0.00,,SCT120,0.00,VWS V14.01,2013-06-29 15:17:00,
2013-06-29 11:22:00,90.3,47.5,30.00,North,0,0.0,0.0,23,0.00,,SCT120,0.00,VWS V14.01,2013-06-29 15:22:00,
2013-06-29 11:27:00,90.9,45.6,30.00,North,0,0.0,0.0,21,0.00,,SCT120,0.00,VWS V14.01,2013-06-29 15:27:00,
2013-06-29 11:32:00,90.3,45.1,30.00,North,0,0.0,0.0,21,0.00,,SCT120,0.00,VWS V14.01,2013-06-29 15:32:00,
2013-06-29 11:37:00,90.3,47.5,30.00,North,0,0.0,0.0,23,0.00,,SCT120,0.00,VWS V14.01,2013-06-29 15:37:00,
2013-06-29 11:42:00,90.7,46.7,29.97,North,0,0.0,0.0,22,0.00,,SCT120,0.00,VWS V14.01,2013-06-29 15:42:00,
2013-06-29 11:47:00,91.8,43.7,29.97,North,0,0.0,0.0,19,0.00,,SCT120,0.00,VWS V14.01,2013-06-29 15:47:00,
2013-06-29 11:52:00,90.5,45.3,29.97,North,0,0.0,0.0,21,0.00,,SCT120,0.00,VWS V14.01,2013-06-29 15:52:00,
2013-06-29 11:57:00,90.9,44.3,29.97,North,0,0.0,0.0,20,0.00,,SCT120,0.00,VWS V14.01,2013-06-29 15:57:00,
2013-06-29 12:02:00,91.0,44.4,29.97,North,0,0.0,0.0,20,0.00,,SCT120,0.00,VWS V14.01,2013-06-29 16:02:00,
2013-06-29 12:07:00,92.1,42.6,29.97,North,0,0.0,0.0,18,0.00,,SCT120,0.00,VWS V14.01,2013-06-29 16:07:00,
2013-06-29 12:12:00,92.8,44.6,29.97,North,0,0.0,0.0,19,0.00,,SCT120,0.00,VWS V14.01,2013-06-29 16:12:00,
2013-06-29 12:17:00,92.3,42.7,29.97,North,0,0.0,0.0,18,0.00,,SCT120,0.00,VWS V14.01,2013-06-29 16:17:00,
2013-06-29 12:22:00,93.2,43.4,29.97,North,0,0.0,0.0,18,0.00,,SCT120,0.00,VWS V14.01,2013-06-29 16:22:00,
2013-06-29 12:27:00,92.5,44.3,29.97,North,0,0.0,0.0,19,0.00,,SCT120,0.00,VWS V14.01,2013-06-29 16:27:00,
2013-06-29 12:32:00,92.5,45.6,29.97,North,0,0.0,0.0,20,0.00,,SCT120,0.00,VWS V14.01,2013-06-29 16:32:00,
2013-06-29 12:37:00,93.0,44.7,29.97,North,0,0.0,0.0,19,0.00,,SCT120,0.00,VWS V14.01,2013-06-29 16:37:00,
2013-06-29 12:42:00,93.4,43.6,29.97,North,0,0.0,0.0,18,0.00,,SCT120,0.00,VWS V14.01,2013-06-29 16:42:00,
2013-06-29 12:47:00,92.1,44.0,29.97,North,0,0.0,0.0,19,0.00,,SCT120,0.00,VWS V14.01,2013-06-29 16:47:00,
2013-06-29 12:52:00,92.1,44.0,29.97,North,0,0.0,0.0,19,0.00,,SCT120,0.00,VWS V14.01,2013-06-29 16:52:00,
2013-06-29 12:57:00,92.8,44.6,29.97,North,0,0.0,0.0,19,0.00,,SCT120,0.00,VWS V14.01,2013-06-29 16:57:00,
2013-06-29 13:02:00,93.6,45.2,29.97,North,0,0.0,0.0,19,0.00,,SCT120,0.00,VWS V14.01,2013-06-29 17:02:00,
2013-06-29 13:07:00,91.8,43.7,29.97,North,0,0.0,0.0,19,0.00,,SCT120,0.00,VWS V14.01,2013-06-29 17:07:00,
2013-06-29 13:12:00,92.8,44.6,29.97,North,0,0.0,0.0,19,0.00,,SCT120,0.00,VWS V14.01,2013-06-29 17:12:00,
2013-06-29 13:17:00,93.7,43.9,29.97,North,0,0.0,0.0,18,0.00,,SCT120,0.00,VWS V14.01,2013-06-29 17:17:00,
2013-06-29 13:22:00,93.4,43.6,29.97,North,0,0.0,0.0,18,0.00,,SCT120,0.00,VWS V14.01,2013-06-29 17:22:00,
2013-06-29 13:27:00,93.6,43.7,29.97,North,0,0.0,0.0,18,0.00,,SCT120,0.00,VWS V14.01,2013-06-29 17:27:00,
2013-06-29 13:32:00,93.9,42.5,29.97,North,0,0.0,0.0,17,0.00,,SCT120,0.00,VWS V14.01,2013-06-29 17:32:00,
2013-06-29 13:37:00,94.1,42.7,29.97,North,0,0.0,0.0,17,0.00,,SCT120,0.00,VWS V14.01,2013-06-29 17:37:00,
2013-06-29 13:43:00,94.3,42.8,29.97,North,0,0.0,0.0,17,0.00,,SCT120,0.00,VWS V14.01,2013-06-29 17:43:00,
2013-06-29 13:47:00,93.2,44.9,29.97,North,0,0.0,0.0,19,0.00,,SCT120,0.00,VWS V14.01,2013-06-29 17:47:00,
2013-06-29 13:52:00,93.4,43.6,29.97,North,0,0.0,0.0,18,0.00,,SCT120,0.00,VWS V14.01,2013-06-29 17:52:00,
2013-06-29 13:58:00,94.1,44.2,29.94,North,0,0.0,0.0,18,0.00,,SCT120,0.00,VWS V14.01,2013-06-29 17:58:00,
2013-06-29 14:03:00,94.3,44.3,29.94,North,0,0.0,0.0,18,0.00,,SCT120,0.00,VWS V14.01,2013-06-29 18:03:00,
2013-06-29 14:08:00,94.5,43.0,29.94,North,0,0.0,0.0,17,0.00,,SCT120,0.00,VWS V14.01,2013-06-29 18:08:00,
2013-06-29 14:13:00,94.5,43.0,29.94,North,0,0.0,0.0,17,0.00,,SCT120,0.00,VWS V14.01,2013-06-29 18:13:00,
2013-06-29 14:18:00,94.8,41.7,29.94,North,0,0.0,0.0,16,0.00,,SCT120,0.00,VWS V14.01,2013-06-29 18:18:00,
2013-06-29 14:23:00,94.5,41.4,29.94,North,0,0.0,0.0,16,0.00,,SCT120,0.00,VWS V14.01,2013-06-29 18:23:00,
2013-06-29 14:28:00,94.8,38.2,29.94,North,0,0.0,0.0,14,0.00,,SCT120,0.00,VWS V14.01,2013-06-29 18:28:00,
2013-06-29 14:33:00,94.6,41.5,29.94,North,0,0.0,0.0,16,0.00,,SCT120,0.00,VWS V14.01,2013-06-29 18:33:00,
2013-06-29 14:38:00,94.1,44.2,29.94,North,0,0.0,0.0,18,0.00,,SCT120,0.00,VWS V14.01,2013-06-29 18:38:00,
2013-06-29 14:43:00,93.4,43.6,29.94,North,0,0.0,0.0,18,0.00,,SCT120,0.00,VWS V14.01,2013-06-29 18:43:00,
2013-06-29 14:48:00,92.5,45.6,29.94,North,0,0.0,0.0,20,0.00,,SCT120,0.00,VWS V14.01,2013-06-29 18:48:00,
2013-06-29 14:53:00,91.2,47.1,29.94,North,0,0.0,0.0,22,0.00,,SCT120,0.00,VWS V14.01,2013-06-29 18:53:00,
2013-06-29 14:58:00,91.4,48.4,29.94,North,0,0.0,0.0,23,0.00,,SCT120,0.00,VWS V14.01,2013-06-29 18:58:00,
2013-06-29 15:03:00,92.8,45.9,29.94,North,0,0.0,0.0,20,0.00,,SCT120,0.00,VWS V14.01,2013-06-29 19:03:00,
2013-06-29 15:08:00,92.7,45.8,29.94,North,0,0.0,0.0,20,0.00,,SCT120,0.00,VWS V14.01,2013-06-29 19:08:00,
2013-06-29 15:13:00,92.8,45.9,29.94,North,0,0.0,0.0,20,0.00,,SCT120,0.00,VWS V14.01,2013-06-29 19:13:00,
2013-06-29 15:18:00,93.2,44.9,29.94,North,0,0.0,0.0,19,0.00,,SCT120,0.00,VWS V14.01,2013-06-29 19:18:00,
2013-06-29 15:23:00,94.3,44.3,29.94,North,0,0.0,0.0,18,0.00,,SCT120,0.00,VWS V14.01,2013-06-29 19:23:00,
2013-06-29 15:28:00,92.5,44.3,29.94,North,0,0.0,0.0,19,0.00,,SCT120,0.00,VWS V14.01,2013-06-29 19:28:00,
2013-06-29 15:33:00,93.6,43.7,29.94,North,0,0.0,0.0,18,0.00,,SCT120,0.00,VWS V14.01,2013-06-29 19:33:00,
2013-06-29 15:38:00,93.0,44.7,29.94,North,0,0.0,0.0,19,0.00,,SCT120,0.00,VWS V14.01,2013-06-29 19:38:00,
2013-06-29 15:43:00,92.3,44.1,29.94,North,0,0.0,0.0,19,0.00,,SCT120,0.00,VWS V14.01,2013-06-29 19:43:00,
2013-06-29 15:48:00,92.3,46.8,29.94,North,0,0.0,0.0,21,0.00,,SCT120,0.00,VWS V14.01,2013-06-29 19:48:00,
2013-06-29 15:53:00,91.9,45.2,29.94,North,0,0.0,0.0,20,0.00,,SCT120,0.00,VWS V14.01,2013-06-29 19:53:00,
2013-06-29 15:58:00,92.3,46.8,29.94,North,0,0.0,0.0,21,0.00,,SCT120,0.00,VWS V14.01,2013-06-29 19:58:00,
2013-06-29 16:03:00,93.4,45.0,29.94,North,0,0.0,0.0,19,0.00,,SCT120,0.00,VWS V14.01,2013-06-29 20:03:00,
2013-06-29 16:08:00,93.6,43.7,29.94,North,0,0.0,0.0,18,0.00,,SCT120,0.00,VWS V14.01,2013-06-29 20:08:00,
2013-06-29 16:13:00,91.9,45.2,29.94,North,0,0.0,0.0,20,0.00,,SCT120,0.00,VWS V14.01,2013-06-29 20:13:00,
2013-06-29 16:18:00,91.8,45.0,29.94,North,0,0.0,0.0,20,0.00,,SCT120,0.00,VWS V14.01,2013-06-29 20:18:00,
2013-06-29 16:23:00,92.3,45.5,29.94,North,0,0.0,0.0,20,0.00,,SCT120,0.00,VWS V14.01,2013-06-29 20:23:00,
2013-06-29 16:28:00,92.5,44.3,29.91,North,0,0.0,0.0,19,0.00,,SCT120,0.00,VWS V14.01,2013-06-29 20:28:00,
2013-06-29 16:33:00,91.6,44.9,29.91,North,0,0.0,0.0,20,0.00,,SCT120,0.00,VWS V14.01,2013-06-29 20:33:00,
2013-06-29 16:38:00,92.8,44.6,29.91,North,0,0.0,0.0,19,0.00,,SCT120,0.00,VWS V14.01,2013-06-29 20:38:00,
2013-06-29 16:43:00,93.4,43.6,29.91,North,0,0.0,0.0,18,0.00,,SCT120,0.00,VWS V14.01,2013-06-29 20:43:00,
2013-06-29 16:48:00,92.8,43.2,29.91,North,0,0.0,0.0,18,0.00,,SCT120,0.00,VWS V14.01,2013-06-29 20:48:00,
2013-06-29 16:53:00,93.4,42.1,29.91,North,0,0.0,0.0,17,0.00,,SCT120,0.00,VWS V14.01,2013-06-29 20:53:00,
2013-06-29 16:58:00,93.4,42.1,29.91,North,0,0.0,0.0,17,0.00,,SCT120,0.00,VWS V14.01,2013-06-29 20:58:00,
2013-06-29 17:03:00,93.4,42.1,29.91,North,0,0.0,0.0,17,0.00,,SCT120,0.00,VWS V14.01,2013-06-29 21:03:00,
2013-06-29 17:08:00,93.2,43.4,29.91,North,0,0.0,0.0,18,0.00,,SCT120,0.00,VWS V14.01,2013-06-29 21:08:00,
2013-06-29 17:13:00,93.2,43.4,29.91,North,0,0.0,0.0,18,0.00,,SCT120,0.00,VWS V14.01,2013-06-29 21:13:00,
2013-06-29 17:18:00,93.4,43.6,29.91,North,0,0.0,0.0,18,0.00,,SCT120,0.00,VWS V14.01,2013-06-29 21:18:00,
2013-06-29 17:23:00,91.9,40.9,29.91,North,0,0.0,0.0,17,0.00,,SCT120,0.00,VWS V14.01,2013-06-29 21:23:00,
2013-06-29 17:28:00,90.9,41.5,29.91,North,0,0.0,0.0,18,0.00,,SCT120,0.00,VWS V14.01,2013-06-29 21:28:00,
2013-06-29 17:33:00,91.2,41.8,29.91,North,0,0.0,0.0,18,0.00,,SCT120,0.00,VWS V14.01,2013-06-29 21:33:00,
2013-06-29 17:38:00,90.7,42.8,29.91,North,0,0.0,0.0,19,0.00,,SCT120,0.00,VWS V14.01,2013-06-29 21:38:00,
2013-06-29 17:43:00,90.0,43.5,29.91,North,0,0.0,0.0,20,0.00,,SCT120,0.00,VWS V14.01,2013-06-29 21:43:00,
2013-06-29 17:48:00,90.1,46.2,29.91,North,0,0.0,0.0,22,0.00,,SCT120,0.00,VWS V14.01,2013-06-29 21:48:00,
2013-06-29 17:53:00,90.9,46.8,29.91,North,0,0.0,0.0,22,0.00,,SCT120,0.00,VWS V14.01,2013-06-29 21:53:00,
2013-06-29 17:58:00,91.4,44.7,29.91,North,0,0.0,0.0,20,0.00,,SCT120,0.00,VWS V14.01,2013-06-29 21:58:00,
2013-06-29 18:03:00,91.9,45.2,29.91,North,0,0.0,0.0,20,0.00,,SCT120,0.00,VWS V14.01,2013-06-29 22:03:00,
2013-06-29 18:08:00,91.8,45.0,29.91,North,0,0.0,0.0,20,0.00,,SCT120,0.00,VWS V14.01,2013-06-29 22:08:00,
2013-06-29 18:13:00,91.2,47.1,29.94,North,0,0.0,0.0,22,0.00,,SCT120,0.00,VWS V14.01,2013-06-29 22:13:00,
2013-06-29 18:18:00,90.9,48.0,29.94,North,0,0.0,0.0,23,0.00,,SCT120,0.00,VWS V14.01,2013-06-29 22:18:00,
2013-06-29 18:23:00,90.3,49.8,29.94,North,0,0.0,0.0,25,0.00,,SCT120,0.00,VWS V14.01,2013-06-29 22:23:00,
2013-06-29 18:28:00,89.6,51.2,29.91,North,0,0.0,0.0,27,0.00,,SCT120,0.00,VWS V14.01,2013-06-29 22:28:00,
2013-06-29 18:33:00,89.1,49.8,29.91,North,0,0.0,0.0,26,0.00,,SCT120,0.00,VWS V14.01,2013-06-29 22:33:00,
2013-06-29 18:38:00,88.7,51.4,29.91,North,0,0.0,0.0,28,0.00,,SCT120,0.00,VWS V14.01,2013-06-29 22:38:00,
2013-06-29 18:43:00,88.3,51.1,29.94,North,0,0.0,0.0,28,0.00,,SCT120,0.00,VWS V14.01,2013-06-29 22:43:00,
2013-06-29 18:48:00,88.2,51.9,29.94,North,0,0.0,0.0,29,0.00,,SCT120,0.00,VWS V14.01,2013-06-29 22:48:00,
2013-06-29 19:06:00,88.0,52.7,29.94,North,0,0.0,0.0,30,0.00,,SCT120,0.00,VWS V14.01,2013-06-29 23:06:00,
2013-06-29 19:11:00,87.6,53.3,29.94,North,0,0.0,0.0,31,0.00,,SCT120,0.00,VWS V14.01,2013-06-29 23:11:00,
2013-06-29 19:16:00,87.6,52.4,29.94,North,0,0.0,0.0,30,0.00,,SCT120,0.00,VWS V14.01,2013-06-29 23:16:00,
2013-06-29 19:21:00,87.6,52.4,29.94,North,0,0.0,0.0,30,0.00,,SCT120,0.00,VWS V14.01,2013-06-29 23:21:00,
2013-06-29 19:26:00,87.4,53.1,29.94,North,0,0.0,0.0,31,0.00,,SCT120,0.00,VWS V14.01,2013-06-29 23:26:00,
2013-06-29 19:31:00,87.3,53.0,29.94,North,0,0.0,0.0,31,0.00,,SCT120,0.00,VWS V14.01,2013-06-29 23:31:00,
2013-06-29 19:36:00,87.1,52.8,29.94,North,0,0.0,0.0,31,0.00,,SCT120,0.00,VWS V14.01,2013-06-29 23:36:00,
2013-06-29 19:41:00,86.7,53.4,29.94,North,0,0.0,0.0,32,0.00,,SCT120,0.00,VWS V14.01,2013-06-29 23:41:00,
2013-06-29 19:46:00,86.7,53.4,29.94,North,0,0.0,0.0,32,0.00,,SCT120,0.00,VWS V14.01,2013-06-29 23:46:00,
2013-06-29 19:51:00,86.7,52.5,29.94,North,0,0.0,0.0,31,0.00,,SCT120,0.00,VWS V14.01,2013-06-29 23:51:00,
2013-06-29 19:56:00,86.5,53.2,29.94,North,0,0.0,0.0,32,0.00,,SCT120,0.00,VWS V14.01,2013-06-29 23:56:00,
2013-06-29 20:01:00,86.5,53.2,29.94,North,0,0.0,0.0,32,0.00,,SCT120,0.00,VWS V14.01,2013-06-30 00:01:00,
2013-06-29 20:06:00,86.5,53.2,29.94,North,0,0.0,0.0,32,0.00,,SCT120,0.00,VWS V14.01,2013-06-30 00:06:00,
2013-06-29 20:11:00,86.2,52.9,29.94,North,0,0.0,0.0,32,0.00,,SCT120,0.00,VWS V14.01,2013-06-30 00:11:00,
2013-06-29 20:16:00,85.8,54.2,29.94,North,0,0.0,0.0,34,0.00,,SCT120,0.00,VWS V14.01,2013-06-30 00:16:00,
2013-06-29 20:21:00,85.8,54.2,29.94,North,0,0.0,0.0,34,0.00,,SCT120,0.00,VWS V14.01,2013-06-30 00:21:00,
2013-06-29 20:26:00,85.8,54.2,29.94,North,0,0.0,0.0,34,0.00,,SCT120,0.00,VWS V14.01,2013-06-30 00:26:00,
2013-06-29 20:31:00,85.6,54.9,29.94,North,0,0.0,0.0,35,0.00,,SCT120,0.00,VWS V14.01,2013-06-30 00:31:00,
2013-06-29 20:36:00,85.8,55.0,29.94,North,0,0.0,0.0,35,0.00,,SCT120,0.00,VWS V14.01,2013-06-30 00:36:00,
2013-06-29 20:41:00,85.8,55.0,29.97,North,0,0.0,0.0,35,0.00,,SCT120,0.00,VWS V14.01,2013-06-30 00:41:00,
2013-06-29 20:46:00,85.6,54.9,29.97,North,0,0.0,0.0,35,0.00,,SCT120,0.00,VWS V14.01,2013-06-30 00:46:00,
2013-06-29 20:51:00,85.6,54.9,29.97,North,0,0.0,0.0,35,0.00,,SCT120,0.00,VWS V14.01,2013-06-30 00:51:00,
2013-06-29 20:56:00,85.5,55.5,29.94,North,0,0.0,0.0,36,0.00,,SCT120,0.00,VWS V14.01,2013-06-30 00:56:00,
2013-06-29 21:01:00,85.1,55.2,29.94,North,0,0.0,0.0,36,0.00,,SCT120,0.00,VWS V14.01,2013-06-30 01:01:00,
2013-06-29 21:06:00,84.7,55.6,29.94,North,0,0.0,0.0,37,0.00,,SCT120,0.00,VWS V14.01,2013-06-30 01:06:00,
2013-06-29 21:11:00,84.9,56.5,29.97,North,0,0.0,0.0,38,0.00,,SCT120,0.00,VWS V14.01,2013-06-30 01:11:00,
2013-06-29 21:16:00,84.7,57.8,29.97,North,0,0.0,0.0,40,0.00,,SCT120,0.00,VWS V14.01,2013-06-30 01:16:00,
2013-06-29 21:21:00,84.7,59.8,29.97,North,0,0.0,0.0,43,0.00,,SCT120,0.00,VWS V14.01,2013-06-30 01:21:00,
2013-06-29 21:26:00,84.6,60.9,29.97,North,0,0.0,0.0,45,0.00,,SCT120,0.00,VWS V14.01,2013-06-30 01:26:00,
2013-06-29 21:31:00,84.4,61.4,29.97,North,0,0.0,0.0,46,0.00,,SCT120,0.00,VWS V14.01,2013-06-30 01:31:00,
2013-06-29 21:36:00,84.2,61.8,29.97,North,0,0.0,0.0,47,0.00,,SCT120,0.00,VWS V14.01,2013-06-30 01:36:00,
2013-06-29 21:41:00,84.0,63.4,29.97,North,0,0.0,0.0,50,0.00,,SCT120,0.00,VWS V14.01,2013-06-30 01:41:00,
2013-06-29 21:46:00,83.8,65.4,29.97,North,0,0.0,0.0,54,0.00,,SCT120,0.00,VWS V14.01,2013-06-30 01:46:00,
2013-06-29 21:51:00,83.7,64.7,29.97,North,0,0.0,0.0,53,0.00,,SCT120,0.00,VWS V14.01,2013-06-30 01:51:00,
2013-06-29 21:56:00,83.5,65.1,29.97,North,0,0.0,0.0,54,0.00,,SCT120,0.00,VWS V14.01,2013-06-30 01:56:00,
2013-06-29 22:01:00,83.5,66.2,29.97,North,0,0.0,0.0,56,0.00,,SCT120,0.00,VWS V14.01,2013-06-30 02:01:00,
2013-06-29 22:06:00,83.5,66.7,29.97,North,0,0.0,0.0,57,0.00,,SCT120,0.00,VWS V14.01,2013-06-30 02:06:00,
2013-06-29 22:11:00,83.1,65.8,29.97,North,0,0.0,0.0,56,0.00,,SCT120,0.00,VWS V14.01,2013-06-30 02:11:00,
2013-06-29 22:16:00,82.9,65.7,29.97,North,0,0.0,0.0,56,0.00,,SCT120,0.00,VWS V14.01,2013-06-30 02:16:00,
2013-06-29 22:21:00,82.9,65.7,29.97,North,0,0.0,0.0,56,0.00,,SCT120,0.00,VWS V14.01,2013-06-30 02:21:00,
2013-06-29 22:26:00,82.9,66.2,29.97,North,0,0.0,0.0,57,0.00,,SCT120,0.00,VWS V14.01,2013-06-30 02:26:00,
2013-06-29 22:31:00,82.9,66.2,29.97,North,0,0.0,0.0,57,0.00,,SCT120,0.00,VWS V14.01,2013-06-30 02:31:00,
2013-06-29 22:36:00,82.9,66.7,29.97,North,0,0.0,0.0,58,0.00,,SCT120,0.00,VWS V14.01,2013-06-30 02:36:00,
2013-06-29 22:41:00,83.1,66.8,29.97,North,0,0.0,0.0,58,0.00,,SCT120,0.00,VWS V14.01,2013-06-30 02:41:00,
2013-06-29 22:46:00,83.1,67.3,29.97,North,0,0.0,0.0,59,0.00,,SCT120,0.00,VWS V14.01,2013-06-30 02:46:00,
2013-06-29 22:51:00,83.3,68.0,29.97,North,0,0.0,0.0,60,0.00,,SCT120,0.00,VWS V14.01,2013-06-30 02:51:00,
2013-06-29 22:56:00,83.1,67.8,29.97,North,0,0.0,0.0,60,0.00,,SCT120,0.00,VWS V14.01,2013-06-30 02:56:00,
2013-06-29 23:01:00,82.9,67.6,29.97,North,0,0.0,0.0,60,0.00,,SCT120,0.00,VWS V14.01,2013-06-30 03:01:00,
2013-06-29 23:06:00,82.8,67.0,29.97,North,0,0.0,0.0,59,0.00,,SCT120,0.00,VWS V14.01,2013-06-30 03:06:00,
2013-06-29 23:11:00,82.8,67.0,29.97,North,0,0.0,0.0,59,0.00,,SCT120,0.00,VWS V14.01,2013-06-30 03:11:00,
2013-06-29 23:16:00,82.8,67.5,29.97,North,0,0.0,0.0,60,0.00,,SCT120,0.00,VWS V14.01,2013-06-30 03:16:00,
2013-06-29 23:22:00,82.8,67.5,29.97,North,0,0.0,0.0,60,0.00,,SCT120,0.00,VWS V14.01,2013-06-30 03:22:00,
2013-06-29 23:27:00,82.6,67.3,29.97,North,0,0.0,0.0,60,0.00,,SCT120,0.00,VWS V14.01,2013-06-30 03:27:00,
2013-06-29 23:32:00,82.6,67.3,29.97,North,0,0.0,0.0,60,0.00,,SCT120,0.00,VWS V14.01,2013-06-30 03:32:00,
2013-06-29 23:37:00,82.6,68.2,29.97,North,0,0.0,0.0,62,0.00,,SCT120,0.00,VWS V14.01,2013-06-30 03:37:00,
2013-06-29 23:42:00,82.4,68.1,29.97,North,0,0.0,0.0,62,0.00,,SCT120,0.00,VWS V14.01,2013-06-30 03:42:00,
2013-06-29 23:47:00,82.2,68.4,29.97,North,0,0.0,0.0,63,0.00,,SCT120,0.00,VWS V14.01,2013-06-30 03:47:00,
2013-06-29 23:52:00,82.2,68.8,29.97,North,0,0.0,0.0,64,0.00,,SCT120,0.00,VWS V14.01,2013-06-30 03:52:00,
2013-06-29 23:57:00,82.2,68.8,29.97,North,0,0.0,0.0,64,0.00,,SCT120,0.00,VWS V14.01,2013-06-30 03:57:00,